Location: Castifao
(42.5040°N, 9.1124°E)
Time: 15:34:00
(UTC+00:00)

Atlas Centaur 2 - Pass Details

Date: 23 January 2020
Orbit: 459 x 1310 km, 30.4° (Epoch: 23 February)

Event Time Altitude Azimuth Distance (km) Brightness Sun altitude
Rises 17:18:25 0° 215° (SW) 2,774 5.8 -10.0°
Reaches altitude 10° 17:21:35 10° 188° (S) 2,027 4.5 -10.6°
Maximum altitude 17:23:58 14° 158° (SSE) 1,902 4.0 -11.0°
Drops below altitude 10° 17:26:37 10° 128° (SE) 2,292 4.1 -11.4°
Enters shadow 17:28:10 - 116° (ESE) 2,692 4.4 -11.7°
